Flag Weather past 2 weeks in Portimão, Portugal

Now
75 °F

Sunny.


Feels Like: 77 °F
Forecast: N/A
Wind: 12 mph from East

Location: Faro / Aeroporto

Current Time: Oct 30, 2014 at 3:30:03 PM

Latest Report: Oct 30, 2014 at 3:00 PM


Visibility: 10 mi

Pressure: 30.04 "Hg

Humidity: 61%

Dew point: 61 °F

Location of PortimãoLocation

Historic Weather in Portimão — Graph

°F

Portimão temperature yesterday

Maximum temperature yesterday: 75 °F (at 1:00 PM)
Minimum temperature yesterday: 66 °F (at 4:30 AM)
Average temperature yesterday: 70 °F

Past Weeks' High & Low Weather Summary

 TemperatureHumidityPressure
High95 °F (Oct 22, 3:30 PM)100% (Oct 15, 7:30 PM)30.24 "Hg (Oct 15, 7:30 PM)
Low61 °F (Oct 24, 5:30 AM)18% (Oct 22, 3:30 PM)29.83 "Hg (Oct 28, 3:30 PM)
Average72 °F70%30.03 "Hg
* Reported Oct 15 3:00 PM — Oct 30 2:00 PM, Portimão, Weather by CustomWeather, © 2014

Note: Actual official high and low records may vary slightly from our data, if they occured in-between our weather recording intervals... More about our weather records

Advertising

Portimão weather history for previous 24 hours

 ConditionsComfort  
Time TempWeatherWind HumidityBarometerVisibility
2:00 PM
Oct 30
73 °FSunny.15 mph69%30.04 "Hg10 mi
1:30 PM73 °FSunny.14 mph69%30.04 "Hg10 mi
1:00 PM73 °FSunny.15 mph69%30.04 "Hg10 mi
12:30 PM73 °FSunny.15 mph69%30.04 "Hg10 mi
12:00 PM73 °FSunny.16 mph69%30.07 "Hg10 mi
11:30 AM72 °FSunny.15 mph73%30.07 "Hg10 mi
11:00 AM72 °FSunny.14 mph69%30.07 "Hg10 mi
10:30 AM72 °FSunny.14 mph69%30.07 "Hg10 mi
10:00 AM72 °FSunny.14 mph69%30.07 "Hg10 mi
9:30 AM70 °FSunny.15 mph69%30.04 "Hg10 mi
9:00 AM70 °FSunny.14 mph69%30.07 "Hg10 mi
8:30 AM68 °FSunny.13 mph73%30.04 "Hg10 mi
8:00 AM68 °FSunny.12 mph69%30.04 "Hg10 mi
7:30 AM66 °FSunny.12 mph73%30.04 "Hg10 mi
7:00 AM66 °FSunny.12 mph78%30.01 "Hg10 mi
6:30 AM66 °FClear.13 mph78%30.01 "Hg10 mi
6:00 AM68 °FClear.12 mph73%30.01 "Hg10 mi
5:30 AM66 °FClear.8 mph83%30.01 "Hg10 mi
5:00 AM66 °FClear.8 mph88%30.01 "Hg10 mi
4:30 AM66 °FClear.7 mph88%30.01 "Hg10 mi
4:00 AM66 °FClear.7 mph88%30.01 "Hg10 mi
3:30 AM66 °FClear.9 mph88%29.98 "Hg10 mi
3:00 AM66 °FClear.10 mph88%30.01 "Hg10 mi
2:30 AM66 °FClear.8 mph88%30.01 "Hg10 mi
2:00 AM66 °FClear.7 mph88%30.01 "Hg10 mi
1:30 AM66 °FClear.9 mph88%30.01 "Hg10 mi
1:00 AM66 °FClear.7 mph88%30.01 "Hg10 mi
12:30 AM66 °FClear.7 mph88%30.01 "Hg10 mi
12:00 AM68 °FClear.8 mph83%30.01 "Hg10 mi
11:30 PM
Oct 29
68 °FClear.7 mph78%30.01 "Hg10 mi
11:00 PM68 °FClear.9 mph78%30.01 "Hg10 mi
10:30 PM68 °FClear.8 mph78%30.01 "Hg10 mi
10:00 PM68 °FClear.7 mph78%30.01 "Hg10 mi
9:30 PM70 °FClear.7 mph78%30.01 "Hg10 mi
9:00 PM68 °FClear.7 mph78%29.98 "Hg10 mi
8:30 PM68 °FPassing clouds.6 mph78%29.98 "HgN/A
8:00 PM70 °FClear.7 mph78%29.98 "Hg10 mi
7:30 PM70 °FPassing clouds.6 mph78%29.98 "HgN/A
7:00 PM70 °FPassing clouds.7 mph78%29.98 "HgN/A
6:30 PM72 °FClear.7 mph73%29.95 "Hg10 mi
6:00 PM72 °FClear.9 mph73%29.95 "Hg10 mi
5:30 PM72 °FSunny.13 mph73%29.92 "Hg10 mi
5:00 PM73 °FSunny.12 mph69%29.92 "Hg10 mi
4:30 PM73 °FSunny.12 mph69%29.92 "Hg10 mi
4:00 PM73 °FSunny.13 mph74%29.92 "Hg10 mi
3:30 PM73 °FSunny.13 mph74%29.92 "Hg10 mi
3:00 PM73 °FSunny.14 mph74%29.95 "Hg10 mi
Weather by CustomWeather, © 2014

See weather overviewHow to use our weather pages